Weather past 2 weeks in Amsterdam Island, French Southern Territories

Now
64 °F

Mild.


Feels Like: 64 °F
Forecast: 58 / 63 °F
Wind: 22 mph from Northwest

Location: Martin De Vivies Ile Amsterdam

Current Time: Apr 18, 2015 at 9:16:29 AM

Latest Report: Apr 18, 2015 at 7:00 AM


Visibility: N/A

Pressure: 29.82 "Hg

Humidity: 78%

Dew point: 57 °F

Location of Amsterdam IslandLocation

Historic Weather in Amsterdam Island — Graph

°F

Amsterdam Island temperature yesterday

Maximum temperature yesterday: 69 °F (at 1:00 PM)
Minimum temperature yesterday: 59 °F (at 7:00 PM)
Average temperature yesterday: 63 °F

Past Weeks' High & Low Weather Summary

 TemperatureHumidityPressure
High72 °F (Apr 9, 12:00 PM)96% (Apr 16, 7:00 AM)30.49 "Hg (Apr 16, 7:00 AM)
Low54 °F (Apr 7, 6:00 PM)47% (Apr 11, 11:00 AM)29.58 "Hg (Apr 10, 3:00 PM)
Average64 °F80%30.05 "Hg
* Reported Apr 3 7:00 AM — Apr 18 7:00 AM, Amsterdam Island, Weather by CustomWeather, © 2015

Note: Actual official high and low records may vary slightly from our data, if they occured in-between our weather recording intervals... More about our weather records

Advertising

Amsterdam Island weather history for previous 24 hours

 ConditionsComfort  
Time TempWeatherWind HumidityBarometerVisibility
7:00 AM
Sat, Apr 18
64 °FMild.22 mph78%29.82 "HgN/A
6:00 AM63 °FMild.23 mph84%29.83 "HgN/A
5:00 AM62 °FMild.21 mph82%29.85 "HgN/A
4:00 AM63 °FMild.17 mph81%29.85 "HgN/A
3:00 AM63 °FMild.16 mph82%29.85 "HgN/A
2:00 AM62 °FMild.15 mph85%29.88 "HgN/A
1:00 AM61 °FCool.13 mph91%29.91 "HgN/A
12:00 AM62 °FCool.12 mph82%29.93 "HgN/A
11:00 PM
Fri, Apr 17
61 °FCool.10 mph81%29.94 "HgN/A
10:00 PM61 °FCool.6 mph80%29.96 "HgN/A
9:00 PM62 °FCool.9 mph79%29.98 "HgN/A
8:00 PM60 °FCool.8 mph85%29.98 "HgN/A
7:00 PM59 °FCool.7 mph82%29.97 "HgN/A
6:00 PM61 °FCool.6 mph81%29.97 "HgN/A
5:00 PM61 °FCool.13 mph81%29.97 "HgN/A
4:00 PM67 °FMild.5 mph71%29.97 "HgN/A
3:00 PM68 °FMild.9 mph69%29.97 "HgN/A
2:00 PM67 °FMild.6 mph73%29.98 "HgN/A
1:00 PM69 °FMild.8 mph72%29.98 "HgN/A
12:00 PM68 °FMild.5 mph76%30.01 "HgN/A
10:00 AM67 °FMild.5 mph83%30.04 "HgN/A
9:00 AM65 °FMild.3 mph86%30.04 "HgN/A
Weather by CustomWeather, © 2015

See weather overviewHow to use our weather pages